Weather History for Oujda, Morocco

Change the Weather History Date:

Monday, October 17, 2011

  Actual Average Record
Temperature  
Mean Temperature 64 °F -  
Max Temperature 78 °F 70 °F 93 °F (2001)
Min Temperature 50 °F 49 °F 48 °F (2004)
Degree Days  
Heating Degree Days 1    
Growing Degree Days 14 (Base 50)    
Moisture  
Dew Point 46 °F    
Average Humidity 55    
Maximum Humidity 82    
Minimum Humidity 22    
Precipitation  
Precipitation 0.00 in 0.05 in - ()
Sea Level Pressure  
Sea Level Pressure 30.16 in    
Wind  
Wind Speed 6 mph ()    
Max Wind Speed 16 mph    
Max Gust Speed -    
Visibility 9.4 miles    
Events      
Averages and records for this station are not official NWS values.
T = Trace of Precipitation, MM = Missing Value Source: Averaged Metar Reports

Daily Weather History Graph

Daily Weather History Graph

Search for Another Location

Airport:

Trip Planner

Search our weather history database for the weather conditions in past years. The results will help you decide how hot, cold, wet, or windy it might be!

Date:

Astronomy

Oct. 17, 2011 Rise Set
Actual Time 6:14 AM WET 5:31 PM WET
Civil Twilight 5:49 AM WET 5:56 PM WET
Nautical Twilight 5:19 AM WET 6:25 PM WET
Astronomical Twilight 4:50 AM WET 6:55 PM WET
Moon 9:07 PM WET (10/17) 10:59 AM WET (10/17)
Length of Visible Light 12h 07m
Length of Day
11h 16m
Waning Gibbous, 75% of the Moon is Illuminated
Oct 17
Waning Gibbous
Oct 20
Last Quarter
Oct 26
New
Nov 2
First Quarter
Nov 10
Full

Hourly Weather History & Observations

Time (WET) Temp. Dew Point Humidity Pressure Visibility Wind Dir Wind Speed Gust Speed Precip Events Conditions
12:00 AM 55 °F 47 °F 68% 30.21 in 12 mi SW 6.9 mph - -  
12:00 AM 55.4 °F 48.2 °F 77% 30.21 in - SW 6.9 mph - N/A   Clear
2:00 AM 51.8 °F 44.6 °F 76% 30.18 in - SSW 3.5 mph - N/A   Clear
4:00 AM 50.0 °F 42.8 °F 76% 30.18 in - WSW 4.6 mph - N/A   Clear
5:00 AM 50.0 °F 44.6 °F 82% 30.18 in - Variable 2.3 mph - N/A   Clear
7:00 AM 50.0 °F 44.6 °F 82% 30.18 in - Calm Calm - N/A   Clear
8:00 AM 57.2 °F 48.2 °F 72% 30.21 in - Calm Calm - N/A   Clear
9:00 AM 66 °F 47 °F 39% 30.18 in 12 mi South 1.2 mph - -   Clear
9:00 AM 66.2 °F 46.4 °F 49% 30.21 in - Variable 1.2 mph - N/A   Clear
10:00 AM 68.0 °F 48.2 °F 49% 30.21 in - ENE 3.5 mph - N/A   Clear
11:00 AM 73.4 °F 46.4 °F 38% 30.18 in - ENE 8.1 mph - N/A   Clear
12:00 PM 76 °F 45 °F 22% 30.11 in 12 mi ENE 6.9 mph - -   Scattered Clouds
12:00 PM 75.2 °F 44.6 °F 34% 30.15 in 6.2 mi ENE 6.9 mph - N/A   Partly Cloudy
2:00 PM 77.0 °F 48.2 °F 36% 30.12 in 6.2 mi North 15.0 mph - N/A   Partly Cloudy
3:00 PM 75.2 °F 44.6 °F 34% 30.12 in 6.2 mi North 16.1 mph - N/A   Partly Cloudy
4:00 PM 73.4 °F 46.4 °F 38% 30.12 in 6.2 mi North 16.1 mph - N/A   Partly Cloudy
5:00 PM 69.8 °F 50.0 °F 49% 30.12 in - North 16.1 mph - N/A   Clear
6:00 PM 65 °F 50 °F 48% 30.10 in 12 mi North 12.7 mph - -   Clear
6:00 PM 64.4 °F 50.0 °F 59% 30.12 in - North 12.7 mph - N/A   Clear
7:00 PM 64.4 °F 48.2 °F 56% 30.15 in - North 11.5 mph - N/A   Clear
8:00 PM 62.6 °F 44.6 °F 52% 30.15 in - North 4.6 mph - N/A   Clear
9:00 PM 60.8 °F 46.4 °F 59% 30.15 in - Calm Calm - N/A   Clear
10:00 PM 57.2 °F 42.8 °F 59% 30.15 in - West 2.3 mph - N/A   Clear
11:00 PM 55.4 °F 41.0 °F 58% 30.15 in - SW 4.6 mph - N/A   Clear
11:45 PM 54 °F 41 °F 52% 30.15 in 12 mi WSW 6.9 mph - -